星链-1135 (STARLINK-1135 )

导读 | 星芒AI

STARLINK-1135 是 SpaceX Starlink 卫星互联网项目中的第 1135 颗卫星,属于低轨卫星群,旨在为全球用户提供高速互联网服务。该卫星于 2023 年发射,运行在约 550 公里的轨道高度,采用先进的通信技术,支持宽带接入。Starlink 项目由数千颗卫星组成,致力于改善偏远地区的网络覆盖,减少数字鸿沟。STARLINK-1135 在提升全球互联网接入能力方面发挥着重要作用。

基本信息
目录编号:
45049
目录名称:
STARLINK-1135
国际标识:
2020-006F
轨道中心:
EARTH
卫星名称:
星链-1135
卫星全名:
星链-1135 (STARLINK-1135 )
卫星状态:
已陨落 最后检测时间 2024-12-15
发射日期:
2020-01-29 UTC
国别 :
美国 (US)
星等 :
--
轨道信息
数据来源 国际轨道数据
星历时间: 2024-12-15T17:06:15+0800
轨道信息已过期318天
半长轴: 6530.287km
偏心率: 0.0006162
轨道倾角: 53.055°
近地点辐角 158.335°
升交点赤经 353.281°
平近点角 309.578°
近地点: 148.128km
远地点: 156.176km
周期: 87.530分钟
每日圈数: 16.451459
详细信息
固有亮度:
5
最大亮度:
2.5
卫星平台:
Starlink V1.0
覆盖范围:
全球
运营商:
太空探索技术公司
运营商所在国:
美国
制造商(研发单位):
太空探索技术公司
制造商所在国:
美国
使用方式:
暂无
卫星简介
星链(Starlink)计划是由太空探索技术公司(SpaceX)提出的一个巨型低轨卫星互联网星座项目,计划在2019年至2024年间在太空搭建由约1.2万颗卫星组成的“星链”网络,其中1584颗将部署在地球上空550千米处的近地轨道,并从2020年开始工作。该卫星仍在工作。